Home > Weather > Mexico City > Past weeks

Flag for Mexico Weather for the Past 2 Weeks in Mexico City, Federal District, Mexico

Now
61 °F

Passing clouds.


Feels Like: 61 °F
Forecast: 56 / 84 °F
Wind: 6 mph from East

Location: Mexico City / Licenci

Current Time: May 3, 2016 at 5:58:46 AM

Latest Report: May 3, 2016 at 4:47 AM


Visibility: 4 mi

Pressure: 30.27 "Hg (23.23 "Hg at 2241m altitude)

Humidity: 68%

Dew Point: 50 °F

Location of Mexico CityLocation

Historic Weather in Mexico City — Graph

°F

Mexico City Temperature Yesterday

Maximum temperature yesterday: 88 °F (at 2:49 PM)
Minimum temperature yesterday: 59 °F (at 7:24 AM)
Average temperature yesterday: 74 °F

High & Low Weather Summary for the Past Weeks

 TemperatureHumidityPressure
High88 °F (May 2, 2:49 PM)88% (Apr 20, 4:48 AM)30.43 "Hg (Apr 20, 4:48 AM)
Low52 °F (Apr 20, 4:48 AM)9% (Apr 27, 2:45 PM)29.50 "Hg (Apr 28, 3:53 PM)
Average65 °F46%30.09 "Hg
* Reported Apr 18 3:48 AM — May 3 3:53 AM, Mexico City, Weather by CustomWeather, © 2016

Note: Actual official high and low records may vary slightly from our data, if they occured in-between our weather recording intervals... More about our weather records

Advertising

Mexico City Weather History for the Previous 24 Hours

Scroll right to see more
 ConditionsComfort  
Time TempWeatherWind HumidityBarometerVisibility
3:53 AM
Tue, May 3
63 °FPassing clouds.3 mph68%29.66 "Hg4 mi
2:46 AM64 °FPassing clouds.9 mph64%30.30 "Hg5 mi
12:50 AM66 °FPassing clouds.8 mph60%29.70 "Hg7 mi
9:47 PM
Mon, May 2
72 °FPassing clouds.13 mph50%29.66 "Hg7 mi
8:45 PM79 °FBroken clouds.13 mph17%30.21 "Hg7 mi
7:45 PM82 °FPartly sunny.7 mph15%30.18 "Hg7 mi
6:55 PM84 °FBroken clouds.8 mph14%29.55 "Hg6 mi
5:45 PM86 °FBroken clouds.6 mph12%30.15 "Hg6 mi
4:48 PM86 °FPartly sunny.7 mph11%30.15 "Hg6 mi
3:53 PM86 °FScattered clouds.8 mph11%29.57 "Hg5 mi
2:49 PM88 °FScattered clouds.3 mph10%30.20 "Hg5 mi
12:45 PM81 °FSunny.7 mph13%29.84 "Hg6 mi
10:20 AM73 °FSunny.2 mph23%30.31 "Hg6 mi
9:22 AM68 °FSunny.2 mph28%30.31 "Hg6 mi
8:22 AM63 °FSunny.3 mph34%30.30 "Hg6 mi
7:24 AM59 °FPassing clouds.5 mph39%30.27 "Hg7 mi
5:48 AM61 °FPassing clouds.5 mph39%30.25 "Hg8 mi
Weather by CustomWeather, © 2016

See weather overviewHow to use our weather pages